This is the latest recevied weather packets stored in our database for station/object N7BTW-13. If no packets are shown the sender has not sent any weather packets the latest 10 day(s).
| Time | Temp. | Humidity | Pressure | Rain* | Wind** | Luminosity | Snow |
|---|---|---|---|---|---|---|---|
| 1777873810 | 17.78° C | 62% | 1008.4 hPa | 0 mm | - | - | - |
| 1777873210 | 18.33° C | 62% | 1008.4 hPa | 0 mm | - | - | - |
| 1777872611 | 18.33° C | 62% | 1008.4 hPa | 0 mm | - | - | - |
| 1777872007 | 18.89° C | 61% | 1008.3 hPa | 0 mm | - | - | - |
| 1777871408 | 19.44° C | 59% | 1008.3 hPa | 0 mm | - | - | - |
| 1777870805 | 20° C | 57% | 1008.2 hPa | 0 mm | - | - | - |
| 1777870209 | 20° C | 55% | 1008.2 hPa | 0 mm | - | - | - |
| 1777869607 | 20.56° C | 54% | 1008.1 hPa | 0 mm | - | - | - |
| 1777869006 | 21.11° C | 53% | 1008.1 hPa | 0 mm | - | - | - |
| 1777868408 | 21.67° C | 51% | 1008 hPa | 0 mm | - | - | - |
| 1777867807 | 22.22° C | 49% | 1007.9 hPa | 0 mm | - | - | - |
| 1777867210 | 22.78° C | 48% | 1007.7 hPa | 0 mm | - | - | - |
| 1777866611 | 23.33° C | 47% | 1007.6 hPa | 0 mm | - | - | - |
| 1777866012 | 23.89° C | 47% | 1007.5 hPa | 0 mm | - | - | - |
| 1777865406 | 25° C | 44% | 1007.3 hPa | 0 mm | - | - | - |
| 1777864809 | 25.56° C | 43% | 1007.3 hPa | 0 mm | - | - | - |
| 1777864207 | 26.67° C | 42% | 1007.3 hPa | 0 mm | - | - | - |
| 1777863608 | 27.78° C | 41% | 1007.2 hPa | 0 mm | - | - | - |
| 1777863009 | 28.33° C | 41% | 1007.1 hPa | 0 mm | - | - | - |
| 1777862406 | 29.44° C | 39% | 1007 hPa | 0 mm | - | - | - |
| 1777861808 | 30° C | 37% | 1006.9 hPa | 0 mm | - | - | - |
| 1777861207 | 30° C | 36% | 1006.9 hPa | 0 mm | - | - | - |
| 1777860608 | 30.56° C | 34% | 1006.9 hPa | 0 mm | - | - | - |
| 1777860012 | 30.56° C | 33% | 1006.9 hPa | 0 mm | - | - | - |
| 1777859411 | 31.67° C | 32% | 1007 hPa | 0 mm | - | - | - |
* Rain latest hour (hover to see other rain measurements)
** Current wind speed in m/s (hover to see current wind gust speed)